Waarnemingen

Advertentie
Mijn weer
Ibiza/Es Codola, Spanje (8373): temperatuur & dauwpunt: 14.01.2018 00:00:00 - 20.01.2018 00:00:00 (CET)Ibiza/Es Codola, Spanje (8373): windsnelheid: 14.01.2018 00:00:00 - 20.01.2018 00:00:00 (CET)Ibiza/Es Codola, Spanje (8373): windrichting: 14.01.2018 00:00:00 - 20.01.2018 00:00:00 (CET)Ibiza/Es Codola, Spanje (8373): luchtdruk: 14.01.2018 00:00:00 - 20.01.2018 00:00:00 (CET)Ibiza/Es Codola, Spanje (8373): zicht: 14.01.2018 00:00:00 - 20.01.2018 00:00:00 (CET)
Datum & Tijd tt [°C] td [°C] ff [km/u] ff [kn] dd ppp [hPa] vv [km]
20.01.2018 00:00:00 - - - - - - -
19.01.2018 23:00:00 7,7 5,9 4 2 W 1021,8 10
19.01.2018 22:00:00 7,9 6,4 5 3 NW 1021,5 18
19.01.2018 21:00:00 8,3 7,4 4 2 - 1021,2 10
19.01.2018 20:00:00 10,0 8,3 4 2 - 1020,6 10
19.01.2018 19:00:00 11,3 9,0 5 3 NNW 1020,0 16
19.01.2018 18:00:00 12,3 9,7 5 3 WZW 1019,6 10
19.01.2018 17:00:00 14,4 10,9 9 5 WZW 1019,3 10
19.01.2018 16:00:00 14,9 10,9 13 7 WZW 1018,8 19
19.01.2018 15:00:00 15,1 10,5 11 6 ZW 1018,6 10
19.01.2018 14:00:00 15,1 10,1 13 7 ZW 1018,8 10
19.01.2018 13:00:00 15,2 9,4 8 4 Z 1019,4 20
19.01.2018 12:00:00 14,7 8,6 2 1 WNW 1020,4 10
19.01.2018 11:00:00 13,7 9,7 2 1 - 1020,5 10
19.01.2018 10:00:00 11,1 9,8 2 1 - 1019,9 10
19.01.2018 09:00:00 9,3 8,3 0 0 N 1019,3 10
19.01.2018 08:00:00 8,9 8,1 2 1 - 1018,9 10
19.01.2018 07:00:00 9,3 8,4 11 6 N 1018,3 10
19.01.2018 06:00:00 8,5 7,7 2 1 N 1018,7 -
19.01.2018 05:00:00 8,9 8,1 4 2 N 1018,4 -
19.01.2018 04:00:00 9,0 8,1 4 2 NNO 1018,9 -
19.01.2018 03:00:00 9,2 8,4 4 2 NW 1019,6 -
19.01.2018 02:00:00 8,8 7,9 2 1 - 1019,9 10
19.01.2018 01:00:00 8,3 7,2 2 1 - 1020,6 10
19.01.2018 00:00:00 8,6 7,6 0 0 N 1020,9 10
18.01.2018 23:00:00 9,3 8,1 2 1 - 1021,2 10
18.01.2018 22:00:00 9,6 8,2 4 2 - 1021,3 10
18.01.2018 21:00:00 9,3 7,9 5 3 N 1021,9 10
18.01.2018 20:00:00 9,8 8,2 8 4 NNW 1022,4 10
18.01.2018 19:00:00 12,3 9,5 4 2 NW 1022,2 20
18.01.2018 18:00:00 13,4 9,4 8 4 OZO 1022,2 10
18.01.2018 17:00:00 14,9 9,9 8 4 O 1022,3 10
18.01.2018 16:00:00 15,3 10,3 8 4 O 1022,3 10
18.01.2018 15:00:00 15,4 10,5 11 6 O 1022,7 10
18.01.2018 14:00:00 15,9 10,4 13 7 O 1023,6 10
18.01.2018 13:00:00 15,9 10,4 13 7 OZO 1024,8 10
18.01.2018 12:00:00 16,7 11,0 11 6 OZO 1025,9 10
18.01.2018 11:00:00 16,2 10,7 9 5 ZO 1026,4 10
18.01.2018 10:00:00 15,5 11,1 5 3 O 1026,2 10
18.01.2018 09:00:00 13,1 11,3 4 2 - 1025,9 10
18.01.2018 08:00:00 13,3 11,2 13 7 O 1025,6 10
18.01.2018 07:00:00 13,8 10,4 8 4 ZO 1025,3 10
18.01.2018 06:00:00 13,2 10,4 9 5 OZO 1025,1 -
18.01.2018 05:00:00 12,9 10,3 8 4 OZO 1025,2 -
18.01.2018 04:00:00 14,2 10,6 15 8 OZO 1025,3 -
18.01.2018 03:00:00 14,3 10,9 16 9 OZO 1025,6 -
18.01.2018 02:00:00 12,6 8,9 13 7 NNO 1025,6 -
18.01.2018 01:00:00 11,2 7,4 11 6 NNO 1025,5 -
18.01.2018 00:00:00 10,9 6,4 9 5 NO 1026,0 10
17.01.2018 23:00:00 10,1 5,8 8 4 N 1026,3 10
17.01.2018 22:00:00 8,7 5,9 5 3 O 1025,7 10
17.01.2018 21:00:00 9,8 6,0 9 5 N 1025,5 10
17.01.2018 20:00:00 11,0 6,1 9 5 NNO 1024,6 10
17.01.2018 19:00:00 13,4 5,8 9 5 NNO 1024,1 10
17.01.2018 18:00:00 15,5 5,4 13 7 NNO 1023,2 10
17.01.2018 17:00:00 17,9 6,2 15 8 N 1022,2 10
17.01.2018 16:00:00 19,1 6,6 15 8 N 1021,4 10
17.01.2018 15:00:00 19,5 7,0 15 8 NW 1021,3 10
17.01.2018 14:00:00 20,3 7,0 13 7 NNW 1021,4 10
17.01.2018 13:00:00 19,9 7,9 11 6 NNW 1021,7 10
17.01.2018 12:00:00 19,5 8,6 4 2 - 1021,9 10
17.01.2018 11:00:00 18,0 8,6 13 7 WNW 1021,4 10
17.01.2018 10:00:00 16,2 8,6 11 6 NNW 1021,1 10
17.01.2018 09:00:00 14,6 8,0 5 3 N 1020,8 10
17.01.2018 08:00:00 9,9 6,5 2 1 - 1020,4 10
17.01.2018 07:00:00 10,6 7,2 5 3 ZZW 1020,2 10
17.01.2018 06:00:00 12,7 9,3 4 2 Z 1019,6 -
17.01.2018 05:00:00 13,8 9,0 4 2 ZW 1020,1 -
17.01.2018 04:00:00 13,5 11,5 15 8 ZW 1020,8 -
17.01.2018 03:00:00 14,0 12,6 16 9 ZZW 1021,2 -
17.01.2018 02:00:00 14,0 12,7 18 10 ZW 1020,9 -
17.01.2018 01:00:00 14,4 12,7 18 10 ZW 1021,6 -
17.01.2018 00:00:00 14,4 12,4 22 12 ZW 1021,8 10
16.01.2018 23:00:00 13,9 12,2 24 13 WZW 1022,2 10
16.01.2018 22:00:00 14,0 12,0 18 10 ZW 1022,4 10
16.01.2018 21:00:00 13,8 11,8 22 12 WZW 1022,6 -
16.01.2018 20:00:00 13,9 11,4 24 13 WZW 1023,0 10
16.01.2018 19:00:00 14,0 11,0 24 13 WZW 1022,9 15
16.01.2018 18:00:00 14,2 10,2 26 14 WZW 1022,6 10
16.01.2018 17:00:00 15,3 9,3 31 17 WZW 1022,6 10
16.01.2018 16:00:00 16,0 8,5 37 20 WZW 1022,9 10
16.01.2018 15:00:00 16,2 8,1 34 18 WZW 1023,2 10
16.01.2018 14:00:00 15,5 7,8 35 19 ZW 1023,9 10
16.01.2018 13:00:00 15,9 8,1 35 19 WZW 1025,2 10
16.01.2018 12:00:00 15,8 8,2 34 18 WZW 1025,7 10
16.01.2018 11:00:00 15,1 7,9 34 18 WZW 1026,0 10
16.01.2018 10:00:00 14,3 7,8 31 17 WZW 1025,5 10
16.01.2018 09:00:00 13,2 5,8 34 18 WZW 1025,5 10
16.01.2018 08:00:00 12,5 6,4 34 18 WZW 1025,2 10
16.01.2018 07:00:00 12,3 6,6 29 16 WZW 1025,1 10
16.01.2018 06:00:00 12,6 6,4 35 19 WZW 1024,8 10
16.01.2018 05:00:00 12,6 6,6 29 16 ZW 1025,3 10
16.01.2018 04:00:00 12,7 7,4 35 19 WZW 1025,7 -
16.01.2018 03:00:00 12,9 7,1 35 19 ZW 1026,0 -
16.01.2018 02:00:00 12,9 8,4 31 17 ZW 1026,3 -
16.01.2018 01:00:00 12,6 8,1 26 14 ZW 1026,6 -
16.01.2018 00:00:00 12,1 7,6 21 11 ZW 1027,4 10
15.01.2018 23:00:00 5,9 4,5 0 0 N 1027,7 10
15.01.2018 22:00:00 6,0 4,4 0 0 N 1027,6 10
15.01.2018 21:00:00 6,5 4,3 5 3 NNW 1027,0 10
15.01.2018 20:00:00 7,4 4,5 4 2 - 1027,0 10
15.01.2018 19:00:00 8,5 5,2 5 3 NW 1026,5 10
15.01.2018 18:00:00 11,2 6,1 2 1 - 1026,0 10
15.01.2018 17:00:00 13,1 6,2 8 4 N 1025,5 10
15.01.2018 16:00:00 13,2 6,0 11 6 NNW 1025,0 10
15.01.2018 15:00:00 13,7 6,1 11 6 NNO 1024,7 10
15.01.2018 14:00:00 14,6 7,2 13 7 O 1024,8 10
15.01.2018 13:00:00 14,5 7,1 13 7 O 1025,3 10
15.01.2018 12:00:00 13,9 6,4 13 7 NNO 1025,6 10
15.01.2018 11:00:00 13,6 7,4 21 11 NNO 1025,6 10
15.01.2018 10:00:00 11,7 6,9 13 7 NNO 1024,6 10
15.01.2018 09:00:00 10,5 7,0 8 4 NNO 1023,7 10
15.01.2018 08:00:00 9,6 7,7 11 6 N 1023,3 10
15.01.2018 07:00:00 10,2 7,4 2 1 - 1022,7 10
15.01.2018 06:00:00 11,1 6,4 11 6 NNO 1021,8 -
15.01.2018 05:00:00 7,6 4,2 4 2 N 1021,4 -
15.01.2018 04:00:00 8,7 4,3 4 2 N 1021,5 -
15.01.2018 03:00:00 8,5 4,5 8 4 N 1020,8 -
15.01.2018 02:00:00 7,8 4,0 0 0 N 1021,0 -
15.01.2018 01:00:00 8,0 4,1 4 2 N 1021,2 -
15.01.2018 00:00:00 7,1 3,5 4 2 - 1021,2 10
14.01.2018 23:00:00 7,3 3,5 5 3 NNW 1020,7 10
14.01.2018 22:00:00 7,0 3,2 5 3 NNW 1020,3 10
14.01.2018 21:00:00 7,3 3,3 8 4 NNW 1019,9 10
14.01.2018 20:00:00 7,5 3,2 2 1 - 1019,4 10
14.01.2018 19:00:00 7,7 3,2 8 4 N 1019,2 10
14.01.2018 18:00:00 11,1 3,7 8 4 WNW 1018,4 10
14.01.2018 17:00:00 13,1 4,0 11 6 W 1017,7 10
14.01.2018 16:00:00 13,0 3,7 15 8 W 1017,6 10
14.01.2018 15:00:00 14,4 4,2 18 10 W 1017,4 10
14.01.2018 14:00:00 14,3 3,7 18 10 WNW 1017,4 10
14.01.2018 13:00:00 14,2 4,3 18 10 W 1018,0 10
14.01.2018 12:00:00 13,8 4,4 22 12 WNW 1018,6 10
14.01.2018 11:00:00 13,5 5,1 26 14 WNW 1018,8 10
14.01.2018 10:00:00 12,6 4,5 16 9 W 1018,2 10
14.01.2018 09:00:00 11,7 4,4 21 11 W 1017,6 10
14.01.2018 08:00:00 10,9 4,4 21 11 W 1017,1 10
14.01.2018 07:00:00 10,8 3,8 29 16 W 1016,6 10
14.01.2018 06:00:00 11,7 4,4 31 17 W 1016,4 -
14.01.2018 05:00:00 12,3 5,1 26 14 W 1016,5 -
14.01.2018 04:00:00 12,8 6,2 24 13 WZW 1016,7 -
14.01.2018 03:00:00 12,3 7,4 18 10 W 1016,8 -
14.01.2018 02:00:00 12,9 9,0 26 14 WZW 1016,9 -
14.01.2018 01:00:00 13,4 7,9 21 11 ZW 1017,4 -
14.01.2018 00:00:00 12,8 6,2 21 11 ZW 1017,7 10

tt = temperatuur
td = dauwpunt
ff = windsnelheid
dd = windrichting
ppp = luchtdruk
vv = zicht

Weerstations in de omgeving